Weather History for Frederick, MD

Change the Weather History Date:

Saturday, November 9, 2013

  Actual Average (KHGR) Record (KHGR)
Temperature  
Mean Temperature 40 °F -  
Max Temperature 53 °F 51 °F 72 °F (1999)
Min Temperature 26 °F 36 °F 25 °F (2003)
Degree Days  
Heating Degree Days 26    
Moisture  
Dew Point 30 °F    
Average Humidity 78    
Maximum Humidity 100    
Minimum Humidity 41    
Precipitation  
Precipitation 0.00 in - - ()
Sea Level Pressure  
Sea Level Pressure 30.24 in    
Wind  
Wind Speed 2 mph (SSW)    
Max Wind Speed 13 mph    
Max Gust Speed 21 mph    
Visibility 10 miles    
Events      
Averages and records for this station are not official NWS values.
T = Trace of Precipitation, MM = Missing Value Source: NWS Daily Summary

Daily Weather History Graph

Daily Weather History Graph

Search for Another Location

Airport:

Trip Planner

Search our weather history database for the weather conditions in past years. The results will help you decide how hot, cold, wet, or windy it might be!

Date:

Astronomy

Nov. 09, 2013 Rise Set
Actual Time 6:46 AM EST 4:59 PM EST
Civil Twilight 6:18 AM EST 5:27 PM EST
Nautical Twilight 5:46 AM EST 5:59 PM EST
Astronomical Twilight 5:14 AM EST 6:31 PM EST
Moon 12:22 PM EST (11/9) 11:26 PM EST (11/9)
Length of Visible Light 11h 09m
Length of Day
10h 12m
Waxing Crescent, 44% of the Moon is Illuminated
Nov 9
Waxing Crescent
Nov 10
First Quarter
Nov 17
Full
Nov 25
Last Quarter
Dec 2
New

Hourly Weather History & Observations

Time (EST) Temp. Windchill Dew Point Humidity Pressure Visibility Wind Dir Wind Speed Gust Speed Precip Events Conditions
12:10 AM 30.2 °F - 30.2 °F 100% 30.34 in 10.0 mi Calm Calm - N/A   Clear
12:30 AM 28.4 °F - 28.4 °F 100% 30.35 in 10.0 mi Calm Calm - N/A   Clear
12:50 AM 30.2 °F - 30.2 °F 100% 30.36 in 10.0 mi Calm Calm - N/A   Clear
1:10 AM 30.2 °F - 30.2 °F 100% 30.35 in 10.0 mi Calm Calm - N/A   Clear
1:30 AM 26.6 °F - 26.6 °F 100% 30.35 in 10.0 mi Calm Calm - N/A   Clear
1:50 AM 28.4 °F - 28.4 °F 100% 30.35 in 10.0 mi Calm Calm - N/A   Clear
2:10 AM 26.6 °F - 26.6 °F 100% 30.35 in 10.0 mi Calm Calm - N/A   Clear
2:35 AM 28.4 °F - 28.4 °F 100% 30.35 in 10.0 mi Calm Calm - N/A   Clear
2:55 AM 28.4 °F - 28.4 °F 100% 30.35 in 10.0 mi Calm Calm - N/A   Clear
3:15 AM 28.4 °F - 28.4 °F 100% 30.34 in 10.0 mi Calm Calm - N/A   Clear
3:35 AM 26.6 °F - 26.6 °F 100% 30.36 in 10.0 mi Calm Calm - N/A   Clear
3:55 AM 28.4 °F - 28.4 °F 100% 30.35 in 10.0 mi Calm Calm - N/A   Clear
4:15 AM 28.4 °F - 28.4 °F 100% 30.36 in 10.0 mi Calm Calm - N/A   Clear
4:35 AM 28.4 °F - 28.4 °F 100% 30.37 in 10.0 mi Calm Calm - N/A   Clear
4:55 AM 28.4 °F - 28.4 °F 100% 30.37 in 10.0 mi Calm Calm - N/A   Clear
5:15 AM 28.4 °F 24.6 °F 28.4 °F 100% 30.36 in 10.0 mi ESE 3.5 mph - N/A   Clear
5:35 AM 28.4 °F - 28.4 °F 100% 30.35 in 10.0 mi Calm Calm - N/A   Clear
5:40 AM 28.4 °F - 28.4 °F 100% 30.35 in 10.0 mi Calm Calm - N/A   Clear
6:55 AM 28.4 °F - 28.4 °F 100% 30.37 in 10.0 mi Calm Calm - N/A   Clear
7:45 AM 30.2 °F - 28.4 °F 93% 30.37 in 10.0 mi Calm Calm - N/A   Clear
8:45 AM 37.4 °F 34.9 °F 30.2 °F 75% 30.37 in 10.0 mi SSW 3.5 mph - N/A   Clear
9:50 AM 44.6 °F 40.2 °F 30.2 °F 57% 30.35 in 10.0 mi SW 8.1 mph - N/A   Clear
10:45 AM 48.2 °F - 30.2 °F 50% 30.32 in 10.0 mi SW 11.5 mph 16.1 mph N/A   Clear
11:45 AM 51.8 °F - 30.2 °F 44% 30.27 in 10.0 mi SSW 12.7 mph 19.6 mph N/A   Clear
12:45 PM 51.8 °F - 30.2 °F 44% 30.22 in 10.0 mi SW 12.7 mph - N/A   Clear
1:50 PM 53.6 °F - 30.2 °F 41% 30.19 in 10.0 mi SSW 10.4 mph - N/A   Clear
2:50 PM 53.6 °F - 30.2 °F 41% 30.15 in 10.0 mi SW 11.5 mph 20.7 mph N/A   Clear
3:50 PM 53.6 °F - 30.2 °F 41% 30.14 in 10.0 mi SSW 11.5 mph 20.7 mph N/A   Scattered Clouds
4:50 PM 53.6 °F - 30.2 °F 41% 30.14 in 10.0 mi SSW 9.2 mph - N/A   Clear
5:50 PM 51.8 °F - 30.2 °F 44% 30.11 in 10.0 mi South 8.1 mph - N/A   Clear
6:50 PM 50.0 °F - 30.2 °F 47% 30.10 in 10.0 mi South 6.9 mph - N/A   Clear
7:55 PM 48.2 °F - 32.0 °F 54% 30.09 in 10.0 mi South 9.2 mph - N/A   Clear
8:15 PM 46.4 °F 42.9 °F 32.0 °F 57% 30.09 in 10.0 mi South 6.9 mph - N/A   Clear
8:35 PM 46.4 °F 42.9 °F 32.0 °F 57% 30.08 in 10.0 mi South 6.9 mph - N/A   Clear
8:55 PM 46.4 °F 43.5 °F 32.0 °F 57% 30.08 in 10.0 mi South 5.8 mph - N/A   Clear
9:15 PM 44.6 °F 42.2 °F 32.0 °F 61% 30.07 in 10.0 mi South 4.6 mph - N/A   Clear
9:35 PM 41.0 °F 39.0 °F 32.0 °F 70% 30.07 in 10.0 mi SSW 3.5 mph - N/A   Clear
9:55 PM 41.0 °F 39.0 °F 32.0 °F 70% 30.07 in 10.0 mi South 3.5 mph - N/A   Clear
10:15 PM 41.0 °F 39.0 °F 32.0 °F 70% 30.06 in 10.0 mi SSE 3.5 mph - N/A   Clear
10:35 PM 41.0 °F 37.1 °F 32.0 °F 70% 30.06 in 10.0 mi South 5.8 mph - N/A   Clear
10:55 PM 37.4 °F 34.9 °F 32.0 °F 81% 30.06 in 10.0 mi South 3.5 mph - N/A   Clear
11:15 PM 37.4 °F - 32.0 °F 81% 30.06 in 10.0 mi Calm Calm - N/A   Clear
11:35 PM 35.6 °F - 32.0 °F 87% 30.06 in 10.0 mi Calm Calm - N/A   Clear
11:55 PM 37.4 °F - 32.0 °F 81% 30.05 in 10.0 mi Calm Calm - N/A   Clear